Location: Bédeille
(43.0872°N, 1.1041°E)
Time: 07:31:24
(UTC+00:00)

DELTA 2 DEB (DPAF) - Pass Details

Date: 03 February 2023
Orbit: 624 x 629 km, 98.4° (Epoch: 26 March)

Event Time Altitude Azimuth Distance (km) Brightness Sun altitude
Rises 17:55:23 0° 9° (N) 2,926 7.3 -8.7°
Reaches altitude 10° 17:57:36 10° 6° (N) 2,016 6.5 -9.0°
Maximum altitude 18:01:54 61° 288° (WNW) 720 4.7 -9.8°
Drops below altitude 10° 18:06:13 10° 208° (SSW) 2,008 7.3 -10.6°
Sets 18:08:25 0° 204° (SSW) 2,913 8.1 -11.0°
